Location: Shenandoah County Park
(38.9356°N, 78.4524°W)
Time: 12:54:47
(UTC-05:00)

Transit 2A - Pass Details

Date: 18 October 2025
Orbit: 591 x 954 km, 66.7° (Epoch: 07 November)

Event Time Altitude Azimuth Distance (km) Brightness Sun altitude
Exits shadow 04:19:57 28° 127° (SE) 1,705 7.9 -36.6°
Drops below altitude 10° 04:22:51 10° 137° (SE) 2,673 9.0 -36.1°
Sets 04:25:27 0° 141° (SE) 3,610 9.7 -35.6°
